When you browse on this site, cookies collect data to enhance your experience and personalize the content and advertising you see.
Visit our Privacy Policy to learn more. By continuing to use the site, you agree to this use of cookies and data.
  • In Czech Republic
  • List of Countries
  • For 7 days
  • Water Temperature
  • Weather Map
  • Weather Widgets
  • user-avatar
    Login

    Hourly Weather Puerto Ayacucho

    Today, 19 February, Wednesday

    Time Temperature Precipitation Wind Pressure Humidity
    00:00 +27°C° 0 mm 1 mps 749 mmHg 81%
    01:00 +27°C° 0 mm 1 mps 749 mmHg 83%
    02:00 +27°C° 0 mm 2 mps 749 mmHg 83%
    03:00 +27°C° 0 mm 2 mps 749 mmHg 83%
    04:00 +26°C° 0 mm 2 mps 749 mmHg 84%
    05:00 +27°C° 0 mm 3 mps 750 mmHg 80%
    06:00 +27°C° 0 mm 3 mps 750 mmHg 77%
    07:00 +28°C° 0 mm 4 mps 751 mmHg 74%
    08:00 +31°C° 0 mm 3 mps 751 mmHg 64%
    09:00 +34°C° 0 mm 2 mps 751 mmHg 55%
    10:00 +37°C° 0 mm 2 mps 751 mmHg 45%
    11:00 +37°C° 0 mm 1 mps 750 mmHg 42%
    12:00 +39°C° 0 mm 1 mps 749 mmHg 39%
    13:00 +40°C° 0 mm 1 mps 748 mmHg 35%
    14:00 +40°C° 0 mm 1 mps 748 mmHg 36%
    15:00 +39°C° 0 mm 1 mps 747 mmHg 36%
    16:00 +36°C° 0 mm 0 mps 747 mmHg 36%
    17:00 +36°C° 0 mm 1 mps 747 mmHg 42%
    18:00 +35°C° 0 mm 1 mps 747 mmHg 48%
    19:00 +33°C° 0 mm 1 mps 748 mmHg 53%
    20:00 +32°C° 0 mm 1 mps 748 mmHg 56%
    21:00 +31°C° 0 mm 1 mps 749 mmHg 58%
    22:00 +31°C° 0 mm 1 mps 750 mmHg 60%
    23:00 +30°C° 0 mm 1 mps 749 mmHg 62%

    Tomorrow, 20 February, Thursday

    Time Temperature Precipitation Wind Pressure Humidity
    00:00 +29°C° 0 mm 1 mps 749 mmHg 64%
    01:00 +28°C° 0 mm 1 mps 749 mmHg 67%
    02:00 +28°C° 0 mm 2 mps 749 mmHg 66%
    03:00 +27°C° 0 mm 2 mps 749 mmHg 66%
    04:00 +27°C° 0 mm 2 mps 749 mmHg 66%
    05:00 +27°C° 0 mm 2 mps 749 mmHg 65%
    06:00 +28°C° 0 mm 3 mps 750 mmHg 65%
    07:00 +28°C° 0 mm 3 mps 750 mmHg 64%
    08:00 +31°C° 0 mm 3 mps 751 mmHg 56%
    09:00 +34°C° 0 mm 3 mps 751 mmHg 48%
    10:00 +37°C° 0 mm 3 mps 751 mmHg 40%
    11:00 +38°C° 0 mm 2 mps 750 mmHg 36%
    12:00 +40°C° 0 mm 2 mps 749 mmHg 33%
    13:00 +41°C° 0 mm 1 mps 748 mmHg 30%
    14:00 +41°C° 0 mm 1 mps 747 mmHg 30%
    15:00 +40°C° 0 mm 1 mps 747 mmHg 30%
    16:00 +40°C° 0 mm 1 mps 746 mmHg 31%
    17:00 +37°C° 0 mm 1 mps 747 mmHg 34%
    18:00 +36°C° 0 mm 2 mps 747 mmHg 38%
    19:00 +34°C° 0 mm 2 mps 747 mmHg 42%
    20:00 +32°C° 0 mm 2 mps 748 mmHg 42%
    21:00 +31°C° 0 mm 3 mps 748 mmHg 43%
    22:00 +31°C° 0 mm 3 mps 749 mmHg 43%
    23:00 +30°C° 0 mm 3 mps 749 mmHg 47%

    Day after tomorrow, 21 February, Friday

    Time Temperature Precipitation Wind Pressure Humidity
    00:00 +29°C° 0 mm 3 mps 748 mmHg 51%
    01:00 +28°C° 0 mm 2 mps 748 mmHg 54%
    08:00 +31°C° 0 mm 3 mps 750 mmHg 53%
    09:00 +35°C° 0 mm 3 mps 751 mmHg 46%
    10:00 +37°C° 0 mm 3 mps 751 mmHg 39%
    11:00 +38°C° 0 mm 2 mps 750 mmHg 36%
    12:00 +40°C° 0 mm 2 mps 749 mmHg 34%
    13:00 +41°C° 0 mm 2 mps 748 mmHg 31%
    14:00 +40°C° 0 mm 2 mps 747 mmHg 31%
    15:00 +40°C° 0 mm 2 mps 747 mmHg 32%
    16:00 +40°C° 0 mm 2 mps 746 mmHg 33%
    17:00 +38°C° 0 mm 2 mps 747 mmHg 35%
    18:00 +37°C° 0 mm 2 mps 747 mmHg 37%
    19:00 +35°C° 0 mm 2 mps 748 mmHg 40%
    20:00 +34°C° 0 mm 2 mps 748 mmHg 42%
    21:00 +32°C° 0 mm 2 mps 749 mmHg 45%
    22:00 +31°C° 0 mm 2 mps 749 mmHg 48%
    23:00 +30°C° 0 mm 2 mps 749 mmHg 49%

    22 February, Saturday

    Time Temperature Precipitation Wind Pressure Humidity
    00:00 +30°C° 0 mm 2 mps 749 mmHg 51%
    01:00 +29°C° 0 mm 2 mps 749 mmHg 52%
    02:00 +29°C° 0 mm 2 mps 749 mmHg 53%
    03:00 +28°C° 0 mm 3 mps 749 mmHg 55%
    04:00 +28°C° 0 mm 3 mps 749 mmHg 56%
    05:00 +28°C° 0 mm 3 mps 749 mmHg 56%
    06:00 +28°C° 0 mm 3 mps 750 mmHg 57%
    07:00 +28°C° 0 mm 4 mps 751 mmHg 57%
    08:00 +31°C° 0 mm 3 mps 751 mmHg 50%
    09:00 +35°C° 0 mm 3 mps 751 mmHg 43%
    10:00 +38°C° 0 mm 2 mps 751 mmHg 36%
    11:00 +39°C° 0 mm 2 mps 750 mmHg 34%
    12:00 +40°C° 0 mm 2 mps 749 mmHg 32%
    13:00 +41°C° 0 mm 2 mps 748 mmHg 30%
    14:00 +41°C° 0 mm 2 mps 748 mmHg 30%
    15:00 +40°C° 0 mm 2 mps 747 mmHg 31%
    16:00 +40°C° 0 mm 1 mps 747 mmHg 31%
    17:00 +39°C° 0 mm 1 mps 747 mmHg 35%
    18:00 +36°C° 0 mm 1 mps 747 mmHg 38%
    19:00 +35°C° 0 mm 1 mps 748 mmHg 42%
    20:00 +34°C° 0 mm 1 mps 748 mmHg 44%
    21:00 +33°C° 0 mm 1 mps 749 mmHg 46%
    22:00 +32°C° 0 mm 1 mps 749 mmHg 47%
    23:00 +31°C° 0 mm 1 mps 749 mmHg 50%

    23 February, Sunday

    Time Temperature Precipitation Wind Pressure Humidity
    00:00 +30°C° 0 mm 1 mps 749 mmHg 52%
    01:00 +30°C° 0 mm 1 mps 749 mmHg 54%
    02:00 +29°C° 0 mm 1 mps 749 mmHg 57%
    03:00 +29°C° 0 mm 2 mps 749 mmHg 60%
    04:00 +28°C° 0 mm 2 mps 749 mmHg 63%
    05:00 +28°C° 0 mm 2 mps 749 mmHg 61%
    06:00 +29°C° 0 mm 2 mps 750 mmHg 60%
    07:00 +29°C° 0 mm 3 mps 751 mmHg 59%
    08:00 +32°C° 0 mm 2 mps 751 mmHg 53%
    09:00 +35°C° 0 mm 2 mps 751 mmHg 46%
    10:00 +37°C° 0 mm 1 mps 751 mmHg 40%
    11:00 +39°C° 0 mm 1 mps 750 mmHg 37%
    12:00 +40°C° 0 mm 1 mps 749 mmHg 34%
    13:00 +41°C° 0 mm 1 mps 748 mmHg 32%
    14:00 +40°C° 0 mm 1 mps 748 mmHg 34%
    15:00 +39°C° 0 mm 2 mps 747 mmHg 36%
    16:00 +38°C° 0 mm 2 mps 747 mmHg 38%
    17:00 +36°C° 0.2 mm 3 mps 747 mmHg 47%
    18:00 +34°C° 0.2 mm 3 mps 748 mmHg 56%
    19:00 +32°C° 0.2 mm 4 mps 749 mmHg 66%
    20:00 +30°C° 0 mm 3 mps 749 mmHg 69%
    21:00 +29°C° 0 mm 2 mps 749 mmHg 72%
    22:00 +29°C° 0 mm 1 mps 750 mmHg 75%
    23:00 +28°C° 0 mm 1 mps 750 mmHg 75%

    24 February, Monday

    Time Temperature Precipitation Wind Pressure Humidity
    00:00 +28°C° 0 mm 1 mps 749 mmHg 76%
    01:00 +28°C° 0 mm 1 mps 749 mmHg 76%
    02:00 +28°C° 0 mm 1 mps 749 mmHg 77%
    03:00 +25°C° 0 mm 0 mps 749 mmHg 78%
    04:00 +25°C° 0 mm 0 mps 749 mmHg 79%
    05:00 +26°C° 0 mm 0 mps 750 mmHg 77%
    06:00 +26°C° 0 mm 0 mps 750 mmHg 74%
    07:00 +29°C° 0 mm 1 mps 751 mmHg 72%
    08:00 +31°C° 0 mm 1 mps 751 mmHg 64%
    09:00 +33°C° 0 mm 1 mps 752 mmHg 55%
    10:00 +35°C° 0 mm 1 mps 752 mmHg 46%
    11:00 +36°C° 0 mm 1 mps 751 mmHg 45%
    12:00 +36°C° 0 mm 1 mps 750 mmHg 44%
    13:00 +37°C° 0 mm 1 mps 749 mmHg 43%
    14:00 +37°C° 0 mm 2 mps 748 mmHg 45%
    15:00 +37°C° 0 mm 2 mps 748 mmHg 46%
    16:00 +36°C° 0 mm 3 mps 748 mmHg 48%
    17:00 +35°C° 0 mm 3 mps 748 mmHg 53%
    18:00 +33°C° 0 mm 3 mps 748 mmHg 59%
    19:00 +31°C° 0 mm 3 mps 749 mmHg 64%
    20:00 +31°C° 0.1 mm 2 mps 749 mmHg 66%
    21:00 +30°C° 0.1 mm 1 mps 750 mmHg 68%
    22:00 +30°C° 0.1 mm 1 mps 750 mmHg 69%
    23:00 +29°C° 0.2 mm 1 mps 750 mmHg 72%
    Show more